TimeAKST,TemperatureF,Dew PointF,Humidity,Sea Level PressureIn,VisibilityMPH,Wind Direction,Wind SpeedMPH,Gust SpeedMPH,PrecipitationIn,Events,Conditions,WindDirDegrees,DateUTC
12:53 AM,-2.9,-6.0,87,29.38,10.0,Calm,Calm,-,N/A,,Scattered Clouds,0,2013-02-28 09:53:00
1:53 AM,-2.9,-6.0,87,29.39,10.0,Calm,Calm,-,N/A,,Mostly Cloudy,0,2013-02-28 10:53:00
3:53 AM,1.0,-2.9,83,29.40,10.0,Calm,Calm,-,N/A,,Overcast,0,2013-02-28 12:53:00
4:53 AM,1.0,-2.0,87,29.41,10.0,Calm,Calm,-,N/A,,Overcast,0,2013-02-28 13:53:00
5:53 AM,1.0,-2.0,87,29.43,9.0,Calm,Calm,-,0.00,Snow,Light Snow,0,2013-02-28 14:53:00
6:33 AM,1.4,-2.2,85,29.44,9.0,Calm,Calm,-,0.00,Snow,Light Snow,0,2013-02-28 15:33:00
6:46 AM,3.2,-0.4,85,29.43,9.0,ENE,4.6,-,0.00,Snow,Light Snow,70,2013-02-28 15:46:00
6:53 AM,6.1,1.9,83,29.44,9.0,East,3.5,-,0.00,Snow,Light Snow,80,2013-02-28 15:53:00
7:28 AM,1.4,-0.4,92,29.45,9.0,Calm,Calm,-,0.00,Snow,Light Snow,0,2013-02-28 16:28:00
7:53 AM,1.9,-2.0,83,29.46,9.0,Calm,Calm,-,0.00,Snow,Light Snow,0,2013-02-28 16:53:00
8:53 AM,1.0,-2.9,83,29.48,10.0,Calm,Calm,-,0.00,,Overcast,0,2013-02-28 17:53:00
9:53 AM,1.9,-2.0,83,29.48,10.0,Calm,Calm,-,N/A,,Overcast,0,2013-02-28 18:53:00
10:53 AM,1.0,-2.9,83,29.50,9.0,West,12.7,-,0.00,Snow,Light Snow,270,2013-02-28 19:53:00
11:53 AM,1.9,-2.9,80,29.53,9.0,West,10.4,-,0.00,,Mostly Cloudy,280,2013-02-28 20:53:00
12:53 PM,1.9,-4.0,76,29.53,10.0,West,15.0,-,N/A,,Mostly Cloudy,280,2013-02-28 21:53:00
1:53 PM,3.9,-2.9,73,29.56,10.0,WNW,16.1,-,N/A,,Scattered Clouds,300,2013-02-28 22:53:00
2:53 PM,1.9,-4.0,76,29.59,10.0,WNW,20.7,-,N/A,,Scattered Clouds,290,2013-02-28 23:53:00
3:53 PM,1.9,-4.0,76,29.61,10.0,WNW,18.4,-,N/A,,Scattered Clouds,290,2013-03-01 00:53:00
4:53 PM,1.0,-6.0,72,29.63,10.0,WNW,17.3,-,N/A,,Scattered Clouds,290,2013-03-01 01:53:00
5:53 PM,-0.0,-6.0,76,29.65,10.0,WNW,15.0,-,N/A,,Scattered Clouds,290,2013-03-01 02:53:00
6:53 PM,-0.9,-7.1,75,29.68,10.0,WNW,16.1,-,N/A,,Partly Cloudy,290,2013-03-01 03:53:00
7:53 PM,-2.0,-7.1,79,29.71,10.0,WNW,17.3,-,N/A,,Partly Cloudy,290,2013-03-01 04:53:00
8:53 PM,-2.9,-8.0,79,29.72,10.0,WNW,15.0,-,N/A,,Partly Cloudy,290,2013-03-01 05:53:00
9:53 PM,-2.9,-8.0,79,29.76,10.0,West,15.0,-,N/A,,Clear,280,2013-03-01 06:53:00
10:53 PM,-4.0,-7.6,85,29.79,10.0,West,15.0,-,N/A,,Clear,280,2013-03-01 07:53:00
11:53 PM,-2.0,-7.1,79,29.80,10.0,WNW,17.3,-,N/A,,Clear,290,2013-03-01 08:53:00